Lid_Strength_Index
3 3 3 3 3 2 2 2 2 2 2 2 2 1 1 1 1 4 7 5 4 -1 -1 4 5 5 6 8 9 10 11 13 12 11 10 8 9 7 7 7 7 6 6 5 5
3 3 3 3 3 3 2 2 2 2 2 1 2 1 1 1 5 6 2 -0 -0 -2 4 5 6 6 7 8 8 9 11 12 10 9 9 9 9 8 8 8 8 7 5 5 5
4 3 3 3 3 2 2 2 2 2 1 1 1 1 1 1 6 6 -0 -2 -2 -1 3 4 6 7 8 7 8 9 10 9 9 8 8 8 8 7 8 8 7 8 7 6 5
3 3 3 3 2 2 2 2 2 2 2 1 2 1 1 5 10 5 -2 -2 -2 2 5 6 6 7 8 9 8 9 9 8 8 8 8 8 8 8 8 7 6 6 5 5 5
3 3 3 3 3 2 2 2 2 2 2 2 1 1 4 6 7 5 -2 1 3 4 6 6 7 8 9 9 8 8 8 8 7 8 8 8 8 8 8 6 6 5 5 4 4
4 4 3 3 3 2 2 2 2 2 2 2 1 1 5 8 4 4 4 4 4 5 5 5 6 6 8 8 8 8 8 8 8 8 8 8 8 8 6 6 5 5 5 4 4
4 4 3 3 3 2 2 2 3 2 2 1 1 2 6 7 3 4 4 4 4 4 6 5 5 6 7 8 7 8 9 9 8 8 8 7 8 8 6 6 6 5 5 5 4
3 4 3 3 3 3 2 3 3 2 2 1 1 3 6 2 3 4 4 5 4 4 5 5 4 6 6 7 8 9 9 11 8 8 8 7 10 7 5 6 6 6 5 5 4
3 3 3 3 3 3 3 3 3 2 1 1 4 5 7 2 5 4 4 5 5 4 5 5 5 7 7 9 10 10 12 11 10 8 9 8 9 7 5 6 6 6 4 4 3
3 3 3 3 3 3 3 3 2 2 2 2 4 6 5 6 5 4 4 4 5 6 6 6 7 8 8 9 13 12 12 11 11 9 9 9 9 7 6 6 6 5 4 4 4
3 3 3 3 3 3 4 5 5 5 5 6 6 7 6 4 5 5 4 5 6 6 9 8 9 11 10 9 10 10 11 11 10 9 10 9 9 8 7 7 6 5 5 5 4
4 4 3 3 3 4 4 5 6 5 7 6 7 6 5 4 6 6 4 7 7 9 9 9 10 9 9 10 10 11 11 11 10 10 10 9 10 8 7 8 6 6 5 5 4
4 4 4 3 3 3 4 5 4 5 8 7 6 6 6 5 7 6 5 7 8 9 9 10 10 9 10 10 11 10 11 11 11 10 9 10 11 10 8 7 6 5 5 4 4
4 4 4 4 4 4 4 4 5 5 8 8 7 6 6 6 8 6 6 7 8 9 10 9 9 10 10 11 10 11 10 11 11 11 13 10 15 11 9 8 7 6 5 5 4
4 4 4 4 4 5 4 4 4 3 15 7 7 5 7 8 8 7 6 6 9 9 9 10 10 10 11 10 9 11 9 10 10 11 12 12 14 11 9 9 7 6 6 5 4
4 4 4 4 4 4 4 4 3 10 15 10 8 9 9 8 8 7 7 6 7 9 10 10 9 9 9 9 9 9 9 9 12 12 14 13 12 12 10 8 7 6 6 5 4
4 4 4 4 4 5 4 4 10 13 9 11 10 10 9 10 9 8 9 9 10 12 12 10 10 9 8 10 9 9 10 13 14 14 15 11 12 11 8 7 6 7 6 5 4
5 5 4 3 3 4 4 6 13 11 11 9 10 10 10 9 10 9 10 11 9 10 11 13 14 10 8 9 10 9 10 12 18 16 14 10 14 10 7 7 6 5 5 4 4
5 2 2 3 3 4 5 10 12 11 10 10 10 11 11 10 10 10 10 10 9 9 11 12 12 8 8 7 7 10 11 9 13 12 15 12 11 8 7 8 7 6 5 5 4
4 3 4 3 4 4 7 11 9 8 8 9 12 10 12 11 11 10 10 9 9 8 8 9 13 9 8 7 7 8 7 13 12 19 18 13 13 12 9 9 6 7 6 5 4
5 4 3 4 3 5 9 9 9 7 7 9 10 11 10 11 10 11 10 9 7 8 7 8 10 10 8 9 10 9 10 10 11 14 18 17 13 8 8 7 7 6 5 5 4
6 7 3 4 7 10 10 10 9 8 7 8 8 10 10 10 11 10 11 9 7 7 9 8 10 13 11 8 8 8 10 10 15 15 14 16 16 6 6 7 6 6 5 4 4
7 7 4 5 10 11 10 10 9 9 9 9 10 9 9 10 12 10 9 7 7 8 9 8 12 15 13 11 9 10 9 9 10 11 15 18 14 7 6 6 6 6 5 5 4
8 9 8 8 9 10 11 11 10 8 9 9 10 9 10 11 9 10 10 8 8 8 7 6 11 12 14 12 10 12 10 9 11 16 14 14 12 9 8 8 7 6 5 5 4
9 11 10 12 11 11 11 10 11 11 9 9 10 10 11 12 11 11 10 9 9 8 8 8 13 11 10 10 10 11 11 11 12 11 16 13 12 9 8 8 8 6 5 5 5
9 10 9 11 11 11 11 12 12 11 11 11 11 11 11 12 11 13 11 11 11 8 9 9 13 11 12 10 11 12 11 10 11 11 11 11 12 9 7 7 7 7 6 6 5
7 7 9 12 11 12 12 12 11 11 10 10 10 11 12 11 9 9 9 8 8 9 10 11 12 13 14 11 11 14 11 10 10 10 10 14 10 7 8 8 7 6 6 6 5